Flag for U.S.A. Weather past 2 weeks in Sacramento, California, U.S.A.

Now
66 °F

Scattered clouds.


Feels Like: 66 °F
Forecast: 53 / 76 °F
Wind: 6 mph from North

Location: Sacramento Executive Airport

Current Time: May 22, 2015 at 11:34:06 AM

Latest Report: May 22, 2015 at 10:53 AM


Visibility: 10 mi

Pressure: 29.99 "Hg

Humidity: 61%

Dew point: 52 °F

Location of SacramentoLocation

Historic Weather in Sacramento — Graph

°F

Sacramento temperature yesterday

Maximum temperature yesterday: 74 °F (at 2:53 PM)
Minimum temperature yesterday: 53 °F (at 5:53 AM)
Average temperature yesterday: 62 °F

Past Weeks' High & Low Weather Summary

 TemperatureHumidityPressure
High77 °F (May 9, 2:53 PM)89% (May 15, 5:53 AM)30.08 "Hg (May 15, 5:53 AM)
Low47 °F (May 8, 3:53 AM)29% (May 12, 2:53 PM)29.71 "Hg (May 7, 4:53 PM)
Average61 °F63%29.91 "Hg
* Reported May 7 9:53 AM — May 22 9:53 AM, Sacramento, Weather by CustomWeather, © 2015

Note: Actual official high and low records may vary slightly from our data, if they occured in-between our weather recording intervals... More about our weather records

Advertising

Sacramento weather history for previous 24 hours

 ConditionsComfort  
Time TempWeatherWind HumidityBarometerVisibility
9:53 AM
Fri, May 22
62 °FOvercast.3 mph70%29.99 "Hg10 mi
8:53 AM59 °FMore clouds than sun.5 mph78%29.99 "Hg10 mi
7:53 AM56 °FOvercast.5 mph84%29.98 "Hg10 mi
6:53 AM55 °FOvercast.5 mph83%29.97 "Hg10 mi
6:01 AM55 °FMostly cloudy.3 mph82%29.97 "Hg10 mi
4:53 AM56 °FMostly cloudy.6 mph84%29.95 "Hg10 mi
3:53 AM56 °FOvercast.6 mph84%29.95 "Hg10 mi
2:53 AM56 °FPassing clouds.7 mph84%29.94 "Hg10 mi
1:53 AM56 °FClear.5 mph81%29.95 "Hg10 mi
12:53 AM56 °FClear.N/A81%29.95 "Hg10 mi
11:53 PM
Thu, May 21
57 °FClear.5 mph78%29.94 "Hg10 mi
10:53 PM58 °FClear.13 mph72%29.93 "Hg10 mi
9:53 PM59 °FClear.10 mph72%29.92 "Hg10 mi
8:53 PM61 °FSunny.15 mph67%29.90 "Hg10 mi
7:53 PM65 °FSunny.13 mph61%29.89 "Hg10 mi
6:53 PM68 °FSunny.15 mph51%29.88 "Hg10 mi
5:53 PM71 °FPassing clouds.15 mph45%29.87 "Hg10 mi
4:53 PM72 °FPassing clouds.12 mph46%29.87 "Hg10 mi
3:53 PM74 °FSunny.14 mph45%29.87 "Hg10 mi
2:53 PM74 °FBroken clouds.9 mph45%29.88 "Hg10 mi
1:53 PM71 °FPartly sunny.7 mph51%29.89 "Hg10 mi
12:53 PM70 °FScattered clouds.7 mph53%29.90 "Hg10 mi
11:53 AM67 °FOvercast.6 mph59%29.92 "Hg10 mi
Weather by CustomWeather, © 2015

See weather overviewHow to use our weather pages